Content
SEND FEEDBACK

Daily
Averages
Monthly
Summary
United States of America

CASTLE HAYNE, NORTH CAROLINA


Home > North America > United States > North Carolina
Elevation: 35 feet     Latitude: 34 19N     Longitude: 077 55W

WEATHER
 
SELECT A DAY
Number of Records: 208,995;   Date Range: 1/1/95 - 8/30/14
 
SHARE

PRINT THIS DATA

[ ← Previous Day ]
WEATHER ALMANAC - MARCH 6, 2013
[ Next Day → ]
[ °C ]   °F
Weather ElementAverageHighLow
Temperature50.1 °F60.1 °F (1:53 am)44.1 °F (11:53 pm)
Dewpoint32.9 °F53.6 °F (2:04 am)23 °F (10:53 am)
Humidity53.5 %83 % (2:53 am)34 % (3:53 pm)
Barometer29.72 in29.97 in (10:53 pm)29.55 in (2:53 am)
Wind Speed21.8 mph31.1 mph (10:53 am)
Wind Gust43.7 mph (12:53 pm)
Weather ElementAverage
Visibility10 mi
Wind DirectionWNW (286 °)

Weather ElementTotal
Precipitation---
Heating Degree Days12.9 (Base 65)
Growing Degree Days2.1 (Base 50)
Averaged from 25 records on March 6, 2013
WEATHER CONDITIONS BREAKOUT
WIND DIRECTION BREAKOUT
WEATHER BY HOUR - MARCH 6, 2013
[ °C ]   °F
Local TimeTemperatureDewpointHumidityBarometerVisibilityWind DirectionWind SpeedGust SpeedPrecipitationEventsConditions
1:53 AM60.1 °F53.1 °F78 %29.58 in10.0 miSW (220°)17.3 mph25.3 mphOvercast
2:04 AM59.0 °F53.6 °F82 %29.58 in10.0 miSW (230°)13.8 mphMostly Cloudy
2:19 AM57.2 °F51.8 °F82 %29.57 in10.0 miSW (230°)15.0 mph21.9 mphMostly Cloudy
2:53 AM57.0 °F52.0 °F83 %29.55 in10.0 miSW (230°)12.7 mph23.0 mphClear
3:53 AM55.0 °F43.0 °F64 %29.55 in10.0 miWest (260°)20.7 mph35.7 mphPartly Cloudy
4:53 AM52.0 °F37.9 °F59 %29.57 in10.0 miWest (270°)20.7 mph28.8 mphMostly Cloudy
5:53 AM48.0 °F33.1 °F56 %29.61 in10.0 miWest (260°)28.8 mph41.4 mphPartly Cloudy
6:53 AM45.0 °F33.1 °F63 %29.63 in10.0 miWNW (290°)23.0 mph33.4 mphOvercast
7:53 AM45.0 °F32.0 °F60 %29.66 in10.0 miWest (280°)18.4 mph25.3 mphOvercast
8:53 AM45.0 °F32.0 °F60 %29.68 in10.0 miWNW (290°)16.1 mph20.7 mphOvercast
9:53 AM46.0 °F27.0 °F47 %29.68 in10.0 miWest (270°)23.0 mph32.2 mphMostly Cloudy
10:53 AM48.9 °F23.0 °F36 %29.69 in10.0 miWest (270°)31.1 mph42.6 mphPartly Cloudy
11:53 AM50.0 °F23.0 °F35 %29.70 in10.0 miWest (280°)29.9 mph34.5 mphMostly Cloudy
12:53 PM50.0 °F23.0 °F35 %29.69 in10.0 miWNW (290°)28.8 mph43.7 mphPartly Cloudy
1:53 PM50.0 °F24.1 °F36 %29.68 in10.0 miWNW (300°)28.8 mph38.0 mphScattered Clouds
2:53 PM51.1 °F24.1 °F35 %29.70 in10.0 miWNW (290°)24.2 mph36.8 mphMostly Cloudy
3:53 PM52.0 °F24.1 °F34 %29.70 in10.0 miWNW (290°)26.5 mph40.3 mphMostly Cloudy
4:53 PM51.1 °F24.1 °F35 %29.75 in10.0 miNW (310°)24.2 mph36.8 mphOvercast
5:53 PM50.0 °F26.1 °F39 %29.80 in10.0 miNW (310°)31.1 mph40.3 mphOvercast
6:53 PM48.9 °F27.0 °F43 %29.84 in10.0 miNW (320°)24.2 mph35.7 mphOvercast
7:53 PM48.9 °F30.0 °F48 %29.88 in10.0 miNNW (330°)25.3 mph38.0 mphOvercast
8:53 PM46.9 °F32.0 °F56 %29.92 in10.0 miNNW (340°)16.1 mph29.9 mphOvercast
9:53 PM46.9 °F30.9 °F54 %29.95 in10.0 miNW (320°)11.5 mphOvercast
10:53 PM45.0 °F32.0 °F60 %29.97 in10.0 miNNW (340°)19.6 mph27.6 mphScattered Clouds
11:53 PM44.1 °F30.0 °F58 %29.97 in10.0 miNNW (330°)13.8 mph23.0 mphScattered Clouds
Hourly data recorded from KILM, located miles away from Castle Hayne, North Carolina







STORIES FROM OUR PARTNERS